Weather History for EGPN - August, 2013

Change the Weather History Date:

Sunday, August 11, 2013

  Actual Average Record
Temperature  
Mean Temperature 60 °F -  
Max Temperature 64 °F 63 °F 69 °F (1997)
Min Temperature 57 °F 54 °F 50 °F (2006)
Degree Days  
Heating Degree Days 4    
Growing Degree Days 10 (Base 50)    
Moisture  
Dew Point 50 °F    
Average Humidity 67    
Maximum Humidity 82    
Minimum Humidity 45    
Precipitation  
Precipitation 0.00 in - - ()
Sea Level Pressure  
Sea Level Pressure 29.81 in    
Wind  
Wind Speed 18 mph ()    
Max Wind Speed 23 mph    
Max Gust Speed -    
Visibility 6.2 miles    
Events      
Averages and records for this station are not official NWS values.
T = Trace of Precipitation, MM = Missing Value Source: Averaged Metar Reports

Daily Weather History Graph

Daily Weather History Graph

Search for Another Location

Airport or City:

Trip Planner

Search our weather history database for the weather conditions in past years. The results will help you decide how hot, cold, wet, or windy it might be!

Date:

Astronomy

Aug. 11, 2013 Rise Set
Actual Time 5:33 AM BST 8:59 PM BST
Civil Twilight 4:47 AM BST 9:44 PM BST
Nautical Twilight 3:44 AM BST 10:47 PM BST
Astronomical Twilight 1:47 AM BST 12:34 AM BST
Moon 11:12 AM BST (8/11) 9:56 PM BST (8/11)
Length of Visible Light 16h 56m
Length of Day
15h 26m
Waxing Crescent, 20% of the Moon is Illuminated
Aug 11
Waxing Crescent
Aug 14
First Quarter
Aug 21
Full
Aug 28
Last Quarter
Sep 5
New

Hourly Weather History & Observations

Time (BST) Temp. Dew Point Humidity Pressure Visibility Wind Dir Wind Speed Gust Speed Precip Events Conditions
9:20 AM 59.0 °F 53.6 °F 82% 29.83 in 6.2 mi WSW 23.0 mph - N/A   Scattered Clouds
9:50 AM 60.8 °F 51.8 °F 72% 29.83 in 6.2 mi WSW 19.6 mph - N/A   Scattered Clouds
10:20 AM 60.8 °F 51.8 °F 72% 29.83 in 6.2 mi WSW 18.4 mph - N/A   Scattered Clouds
10:50 AM 62.6 °F 51.8 °F 68% 29.83 in 6.2 mi West 21.9 mph - N/A   Scattered Clouds
11:20 AM 60.8 °F 48.2 °F 63% 29.83 in 6.2 mi WSW 23.0 mph - N/A   Scattered Clouds
12:20 PM 62.6 °F 46.4 °F 55% 29.83 in 6.2 mi West 15.0 mph - N/A   Scattered Clouds
12:50 PM 64.4 °F 46.4 °F 52% 29.83 in 6.2 mi West 20.7 mph - N/A   Scattered Clouds
1:20 PM 60.8 °F 53.6 °F 77% 29.83 in 6.2 mi WSW 18.4 mph - N/A   Scattered Clouds
2:20 PM 62.6 °F 46.4 °F 55% 29.80 in 6.2 mi West 19.6 mph - N/A   Scattered Clouds
2:50 PM 64.4 °F 42.8 °F 45% 29.80 in 6.2 mi West 18.4 mph - N/A   Scattered Clouds
3:20 PM 64.4 °F 50.0 °F 59% 29.80 in 6.2 mi WSW 23.0 mph - N/A   Scattered Clouds
3:50 PM 64.4 °F 50.0 °F 59% 29.80 in 6.2 mi West 19.6 mph - N/A   Scattered Clouds
4:20 PM 64.4 °F 48.2 °F 56% 29.80 in 6.2 mi West 19.6 mph - N/A   Scattered Clouds
4:50 PM 62.6 °F 51.8 °F 68% 29.80 in 6.2 mi WSW 21.9 mph - N/A   Scattered Clouds
5:20 PM 62.6 °F 50.0 °F 63% 29.80 in 6.2 mi West 18.4 mph - N/A   Scattered Clouds
5:50 PM 62.6 °F 50.0 °F 63% 29.80 in 6.2 mi WSW 21.9 mph - N/A   Scattered Clouds
6:20 PM 60.8 °F 51.8 °F 72% 29.80 in 6.2 mi WSW 23.0 mph - N/A   Scattered Clouds
6:50 PM 59.0 °F 51.8 °F 77% 29.80 in 6.2 mi WSW 20.7 mph - N/A   Scattered Clouds
7:20 PM 59.0 °F 48.2 °F 67% 29.80 in 6.2 mi West 17.3 mph - N/A   Scattered Clouds
7:50 PM 59.0 °F 50.0 °F 72% 29.80 in 6.2 mi West 20.7 mph - N/A   Partly Cloudy
8:20 PM 59.0 °F 48.2 °F 67% 29.80 in 6.2 mi West 19.6 mph - N/A   Partly Cloudy
8:50 PM 59.0 °F 50.0 °F 72% 29.80 in 6.2 mi West 16.1 mph - N/A   Partly Cloudy
9:20 PM 57.2 °F 51.8 °F 82% 29.83 in 6.2 mi WSW 18.4 mph - N/A   Partly Cloudy
9:50 PM 57.2 °F 51.8 °F 82% 29.83 in 6.2 mi WSW 16.1 mph - N/A   Partly Cloudy